Location: ???????
(56.2167°N, 38.0500°E)
Time: 06:23:12
(UTC+00:00)

SWARM A - Pass Details

Date: 19 May 2025
Orbit: 436 x 441 km, 87.3° (Epoch: 15 June)

Event Time Altitude Azimuth Distance (km) Brightness Sun altitude
Exits shadow 19:16:08 - 184° (S) 1,662 6.7 -9.2°
Reaches altitude 10° 19:16:22 10° 184° (S) 1,565 6.5 -9.2°
Maximum altitude 19:19:46 84° 271° (W) 454 4.3 -9.4°
Drops below altitude 10° 19:23:11 10° 2° (N) 1,577 8.1 -9.7°
Sets 19:25:15 0° 3° (N) 2,452 9.1 -9.8°
